SCP
-0 -0 -0 0 0 0 0 0 0 0 0 -0 -0 -0 -0 -0 0 0 0 0 0 0 0 0 0 0 0 0 0 0 0 0 0 0 0 0 0 0 0 0 0 0 0 0 0 0 0 0 0
-0 -0 -0 0 0 0 0 0 0 0 0 -0 -0 -0 -0 0 0 0 0 0 0 0 0 0 0 0 0 0 0 0 0 0 0 0 0 0 0 0 0 0 0 0 0 0 0 0 0 0 0
0 0 0 0 0 0 0 0 0 0 0 -0 -0 -0 -0 0 0 0 0 0 0 0 0 0 0 0 0 0 0 0 0 0 0 0 0 0 0 0 0 0 0 0 0 0 0 0 0 0 0
0 0 0 0 0 0 0 0 0 0 0 -0 -0 -0 0 0 0 0 0 0 0 0 0 0 0 0 0 0 0 0 0 0 0 0 0 0 0 0 0 0 0 0 0 0 0 0 0 0 0
0 0 0 0 0 0 0 0 0 0 0 0 -0 0 0 0 0 0 0 0 0 0 0 0 0 0 0 0 0 0 0 0 0 0 0 0 0 0 0 0 0 0 0 0 0 0 0 0 0
0 0 0 0 0 0 -0 -0 0 0 0 0 0 0 0 0 0 0 0 0 0 0 0 0 0 0 0 0 0 0 0 0 0 0 0 0 0 0 0 0 0 0 0 0 0 0 0 0 0
0 0 0 0 0 0 0 0 0 0 0 0 0 0 0 0 0 0 0 0 0 0 0 0 0 0 0 0 0 0 0 0 0 0 0 0 0 0 0 0 0 0 0 0 0 0 0 0 0
0 0 0 0 0 0 0 0 0 0 0 0 0 0 0 0 1 0 0 0 0 0 0 0 0 0 0 0 0 0 0 0 0 0 0 0 0 0 0 0 0 0 0 0 0 0 0 0 0
0 0 0 0 0 0 0 0 0 0 0 0 0 0 0 1 1 1 0 0 0 0 0 0 0 0 0 0 0 0 0 0 0 0 0 0 0 0 0 0 0 0 0 0 0 0 0 0 0
0 0 0 0 0 0 0 0 0 0 0 0 0 0 0 1 1 1 0 0 0 0 0 0 0 0 0 0 0 0 0 0 0 0 0 0 0 0 0 0 0 0 0 0 0 0 0 0 0
0 0 0 0 0 0 0 0 0 0 0 0 0 0 0 0 1 1 0 0 0 0 0 0 0 0 0 0 0 0 0 0 0 0 0 0 0 0 0 0 0 0 0 0 0 0 0 0 0
0 0 0 0 0 0 0 0 0 0 0 0 0 0 0 0 0 0 0 0 0 0 0 0 0 0 0 0 0 0 0 0 0 0 0 0 0 0 0 0 0 0 0 0 0 0 0 0 0
0 0 0 0 0 0 0 0 0 0 0 0 0 0 0 0 0 0 0 0 0 0 0 0 0 0 0 0 0 0 0 0 0 0 0 0 0 0 0 0 0 0 0 0 0 0 0 0 0
0 0 0 0 0 0 0 0 0 0 0 0 0 0 0 0 0 0 0 0 0 0 0 0 0 0 0 0 0 0 0 0 0 0 0 1 0 0 1 1 1 1 1 0 0 0 0 0 0
0 0 0 0 0 0 0 0 0 0 0 0 0 0 0 0 0 0 1 1 1 1 1 1 1 1 1 1 1 1 1 1 1 1 1 1 1 1 1 1 1 1 1 1 1 0 0 0 0
0 0 0 0 0 0 0 0 0 0 0 0 0 0 0 0 0 0 1 1 1 1 1 1 1 1 1 1 1 1 1 1 1 1 1 1 1 1 1 1 1 1 1 1 1 0 0 0 0
0 0 0 0 0 0 0 0 0 0 0 0 0 0 0 0 0 0 1 1 1 2 2 2 2 2 2 2 2 2 2 2 2 2 1 1 1 1 1 1 1 1 1 1 1 0 0 0 0
0 0 0 0 0 0 0 0 0 0 0 0 0 0 0 0 0 0 0 1 1 2 3 3 3 3 3 3 3 2 2 2 2 2 1 1 1 1 1 1 1 1 1 1 0 0 0 0 0
0 0 0 0 0 0 0 0 0 0 0 0 0 0 0 0 0 0 1 1 1 2 3 3 4 4 4 4 3 3 2 2 1 1 1 1 1 1 1 0 0 0 0 0 0 0 0 0 0
0 0 0 0 0 0 0 0 0 0 0 0 0 1 1 1 1 1 1 1 1 2 2 3 4 4 4 4 4 3 2 2 1 1 0 0 0 0 0 0 0 0 0 0 0 0 0 0 0
0 0 0 0 0 0 0 0 0 0 0 1 1 1 1 2 2 2 2 2 2 2 2 3 4 4 4 4 3 3 2 1 1 0 0 0 0 0 0 0 0 0 0 0 0 0 0 0 0
0 0 0 0 0 0 0 0 0 0 0 1 2 2 2 2 2 2 2 2 2 2 2 3 4 4 4 3 3 2 1 1 1 0 0 0 0 0 0 0 0 0 0 0 0 0 0 0 0
0 0 0 0 0 0 0 0 0 0 1 1 2 2 2 2 2 2 2 2 2 3 3 3 3 3 3 3 2 2 1 1 0 0 0 0 0 0 0 0 0 0 0 0 0 0 0 0 0
0 0 0 0 0 0 0 0 0 1 1 1 2 2 2 2 2 2 2 2 2 2 2 3 2 2 2 2 1 1 1 0 0 0 0 0 0 0 0 0 0 0 0 0 0 0 0 0 0
0 0 0 0 0 0 0 0 0 1 1 1 1 1 1 1 1 1 1 1 1 1 2 2 1 1 1 1 1 1 0 0 0 0 0 0 0 0 0 0 0 0 0 0 0 0 0 0 0
0 0 0 0 0 0 0 0 1 1 1 1 1 1 1 0 0 0 0 0 0 1 1 1 1 0 0 0 0 0 0 0 0 0 0 0 0 0 0 0 0 0 0 0 0 0 0 0 0
0 0 0 0 0 0 0 0 1 1 1 1 1 0 0 0 0 0 0 0 0 0 0 0 0 0 0 0 0 0 0 0 0 0 0 0 0 0 0 0 0 0 0 0 0 0 0 0 0
0 0 0 0 0 0 0 0 0 1 1 1 1 0 0 0 0 0 0 0 0 0 0 0 0 0 0 0 0 0 0 0 0 0 0 0 0 0 0 0 0 0 0 0 0 0 0 0 0
0 0 0 0 0 0 0 0 1 1 1 1 0 0 0 0 0 0 0 0 0 0 0 0 0 0 0 0 0 0 0 0 0 0 0 0 0 0 0 0 0 0 0 0 0 0 0 0 0
0 0 0 0 0 0 0 0 1 1 1 1 0 0 0 0 0 0 0 0 0 0 0 0 0 0 0 0 0 0 0 0 0 0 0 0 0 0 0 0 0 0 0 0 0 0 0 0 0
Wind_Speed
8 7 6 6 9 7 3 3 3 4 3 3 2 3 5 5 6 5 6 14 16 17 18 19 14 13 13 12 13 14 15 15 15 14 14 13 12 11 11 11 10 10 10 10 10 10 10 9 9
7 5 6 7 9 7 1 3 3 6 5 2 1 2 3 2 5 6 9 14 17 17 17 18 16 14 13 13 13 13 15 15 15 14 14 13 12 11 11 11 10 9 9 9 9 9 9 8 8
7 6 7 7 8 8 2 3 5 5 2 3 2 1 3 4 4 6 9 16 17 16 16 17 18 15 14 14 13 14 15 15 14 14 13 12 11 10 10 10 9 8 8 8 8 8 8 7 6
6 7 7 10 13 9 8 7 8 8 4 4 4 1 3 5 3 7 14 17 17 16 16 18 17 15 14 14 14 14 14 14 13 13 12 11 11 10 9 9 8 7 7 7 7 7 6 6 5
7 7 11 14 15 11 8 10 11 11 6 4 5 2 4 6 7 12 16 17 17 16 15 19 15 15 14 14 14 13 12 12 11 11 11 10 9 9 8 8 7 7 6 6 6 6 5 5 4
8 8 13 15 16 11 9 10 10 11 9 6 6 5 5 9 10 14 16 16 16 15 15 17 16 16 15 15 13 12 11 11 10 10 9 9 8 8 8 7 6 6 5 5 6 6 5 4 3
11 11 17 18 14 12 9 7 9 10 9 8 6 4 6 10 12 15 15 15 15 15 14 16 18 17 16 13 12 12 11 10 10 9 9 9 8 8 7 6 6 5 4 4 5 4 4 3 2
9 10 17 17 14 13 7 6 7 9 8 3 5 6 5 13 14 15 14 14 14 14 14 14 16 16 16 15 14 12 11 11 10 10 10 9 8 8 7 8 7 5 4 4 4 3 3 2 1
9 11 15 15 13 11 6 7 5 5 7 7 8 4 5 17 17 16 14 14 14 14 13 13 15 14 14 14 14 14 12 11 11 11 10 9 10 10 10 8 8 5 4 4 3 3 2 3 6
10 13 16 9 8 6 4 6 5 6 10 10 10 6 8 17 18 18 17 17 17 16 15 14 14 14 13 10 11 10 11 11 10 9 11 9 6 5 5 11 6 5 4 4 3 2 6 9 6
11 13 10 7 8 8 7 6 5 8 10 10 11 12 13 17 18 18 18 17 17 17 16 15 14 13 13 9 9 7 7 7 9 9 9 7 5 5 5 5 7 7 8 7 7 8 6 4 1
10 11 10 9 6 8 9 8 8 10 10 5 7 9 15 18 19 19 18 17 16 16 17 15 15 13 12 10 8 7 6 6 6 8 9 7 5 4 4 4 4 4 4 3 4 4 3 3 4
14 10 11 12 12 12 12 12 11 11 9 7 7 10 17 19 19 18 16 15 16 16 16 16 14 13 11 9 7 7 6 6 6 5 7 6 5 5 4 3 3 4 3 4 4 4 3 4 5
10 12 12 13 13 12 13 13 11 9 5 7 9 12 16 18 18 17 17 17 17 16 16 15 15 13 12 9 7 6 5 4 5 4 5 6 5 4 4 4 3 3 2 2 2 2 3 3 1
7 10 12 14 14 11 10 14 14 6 4 7 9 11 13 15 16 18 18 17 17 15 15 14 14 13 13 11 10 6 5 5 4 3 3 4 5 3 4 3 2 2 1 1 1 0 1 0 1
10 12 12 11 11 9 10 13 9 3 3 5 6 8 11 13 16 17 17 16 15 15 15 14 12 14 13 10 9 6 5 4 3 2 1 2 3 3 3 2 1 1 1 1 1 1 1 1 1
11 12 11 9 8 7 12 12 6 1 5 6 6 7 9 11 15 15 15 15 14 13 13 14 13 13 13 12 8 6 5 4 3 3 2 2 2 1 1 1 1 2 2 2 2 2 1 1 2
10 10 9 9 7 7 11 11 7 5 6 7 6 6 7 10 11 11 12 13 13 13 13 13 13 13 12 10 8 6 6 6 5 5 4 4 2 1 1 1 2 3 3 3 3 3 2 1 1
4 7 8 7 3 7 10 11 10 7 6 5 5 5 6 7 7 6 8 11 12 13 14 14 14 14 12 10 10 8 7 6 6 6 6 4 3 2 2 3 4 3 3 4 4 3 2 1 1
10 10 10 8 5 7 10 12 10 6 2 3 5 6 7 8 6 5 4 7 11 13 14 15 15 15 14 11 9 8 9 7 6 6 6 6 4 4 4 5 5 5 5 5 4 2 1 1 1
14 14 12 8 6 9 10 13 11 5 4 5 6 7 9 10 9 7 4 1 5 9 12 12 13 14 13 13 10 9 7 6 4 5 3 3 4 4 4 5 6 6 5 4 4 4 3 2 1
13 12 11 10 10 9 7 11 10 8 7 6 8 10 11 12 11 11 9 7 4 2 6 9 11 12 13 14 13 14 9 7 6 5 4 4 4 4 5 5 5 5 5 5 4 3 2 2 2
10 7 10 10 10 11 10 11 8 8 6 7 9 10 11 12 12 12 12 10 9 7 6 8 10 11 12 11 11 10 8 6 6 6 6 6 5 6 7 7 7 6 5 6 5 4 3 1 1
9 7 7 9 10 13 13 12 9 5 3 6 8 10 11 11 12 12 12 12 12 11 10 10 10 10 9 9 8 8 9 9 8 7 7 6 5 6 9 9 7 7 6 6 5 4 4 3 1
12 11 9 11 11 11 9 10 3 9 7 8 9 10 11 11 11 12 13 13 13 13 12 12 13 12 11 10 9 8 8 8 8 7 7 7 6 6 8 8 7 6 6 6 4 4 4 2 1
15 16 11 8 9 8 10 9 9 9 11 11 11 11 11 12 12 13 13 13 13 14 13 13 14 13 12 11 11 10 9 7 7 8 8 8 7 8 8 8 7 7 6 5 3 3 2 1 1
14 15 14 11 10 8 7 7 9 10 12 12 11 11 12 11 12 12 13 13 13 14 14 13 14 13 13 13 12 12 11 11 11 10 10 9 8 8 9 8 7 6 5 4 3 3 2 1 2
13 11 9 11 12 12 10 12 11 15 13 12 11 11 11 11 11 12 12 12 12 12 13 14 14 14 13 13 12 11 12 12 11 11 11 10 10 8 8 7 7 6 5 4 2 2 2 2 2
11 11 11 11 11 12 12 5 6 15 14 14 12 11 11 11 10 10 10 11 11 12 13 13 13 14 13 14 13 13 12 12 12 11 11 10 9 8 7 7 6 5 5 3 2 2 2 4 4
8 9 11 11 11 11 12 3 6 11 14 15 14 12 12 11 10 10 10 10 11 12 13 13 13 13 13 13 13 13 12 12 12 11 10 9 8 7 6 6 5 4 4 3 3 3 4 5 6
Wind_Direction
206 219 248 256 255 249 280 39 360 1 35 31 341 316 329 331 334 29 105 155 152 151 149 156 157 156 150 143 137 135 135 138 140 142 142 140 137 134 131 129 128 127 126 124 122 120 119 118 119
207 222 243 254 270 265 167 50 14 17 24 354 172 260 289 18 47 93 139 151 153 152 153 161 155 158 154 149 143 141 142 142 142 142 143 143 141 138 137 137 135 132 130 128 125 122 120 120 121
200 234 264 267 259 271 319 47 6 358 339 271 253 261 323 28 94 131 143 153 155 153 158 151 157 161 158 155 152 149 148 147 146 146 147 146 145 142 141 142 140 136 134 131 127 123 121 120 122
205 222 243 254 256 260 287 306 321 309 279 246 253 202 93 61 100 132 144 157 156 158 161 150 163 163 161 160 160 157 154 152 152 151 151 150 149 147 147 147 146 143 138 133 127 122 119 119 120
230 246 245 248 254 261 275 288 293 288 275 248 250 245 117 101 110 134 151 160 162 163 164 154 163 163 164 166 166 164 160 157 156 155 154 153 152 152 153 154 154 151 147 138 129 122 119 116 115
221 235 245 247 250 255 264 274 277 272 262 238 235 243 111 122 138 150 157 166 166 165 166 152 161 167 169 172 171 169 165 163 161 159 157 155 154 156 160 162 161 158 152 143 133 127 122 116 109
236 235 245 250 258 258 259 263 263 269 259 234 226 226 131 149 149 157 161 170 169 168 168 160 169 173 175 176 174 172 168 166 165 162 160 160 162 166 170 170 168 163 157 148 139 133 126 120 115
248 245 244 245 248 252 238 241 257 269 264 243 224 234 159 155 155 161 165 173 173 173 174 168 175 176 180 181 180 178 173 172 170 169 171 170 172 179 182 189 168 173 170 163 151 140 128 130 136
236 240 239 235 238 241 221 240 249 261 249 220 220 246 90 146 158 166 171 179 180 181 176 177 179 181 186 186 173 181 181 179 178 180 178 186 198 190 186 189 148 177 180 174 160 146 150 203 181
221 235 238 243 246 243 232 255 269 238 227 217 209 185 143 155 168 178 183 185 184 185 185 183 186 182 188 187 171 189 191 181 200 192 184 201 207 208 208 124 152 185 189 189 170 174 211 233 194
222 239 243 235 243 266 273 270 258 250 237 222 211 188 174 174 181 189 193 193 190 186 190 190 188 187 189 186 182 189 195 181 200 200 194 205 205 203 213 179 174 192 201 207 171 205 215 218 226
230 240 251 246 242 257 274 282 270 251 250 249 237 200 182 188 192 197 198 197 194 191 191 195 187 187 196 193 187 191 195 185 198 188 205 199 207 216 211 219 200 198 206 211 223 220 195 220 204
229 235 236 248 256 263 275 270 270 263 257 256 236 205 195 198 201 201 203 200 197 195 193 194 191 185 191 198 199 197 202 195 196 196 201 215 213 215 209 215 221 229 210 195 223 225 191 215 203
225 235 245 250 253 257 261 263 251 251 247 235 222 212 208 209 207 202 202 203 201 198 196 192 191 184 187 192 201 197 202 200 211 202 205 212 231 221 219 211 207 225 230 244 238 213 205 230 231
237 236 238 238 240 243 253 249 235 233 258 237 222 216 218 218 212 209 205 204 202 198 196 193 190 185 187 193 195 194 194 187 201 193 202 216 237 228 236 234 204 202 171 152 245 143 234 213 204
213 226 233 213 218 220 235 235 190 157 259 248 235 226 224 222 221 216 212 206 205 201 193 191 190 186 185 189 188 185 176 165 173 164 175 217 258 256 247 235 193 133 143 140 104 65 49 27 318
204 217 219 192 197 215 228 241 183 249 277 266 251 239 231 229 229 225 219 209 205 203 194 188 192 188 183 179 172 165 144 137 126 102 68 37 353 301 250 213 142 137 119 100 100 79 49 18 350
202 213 208 211 169 232 239 247 251 265 277 269 266 259 247 246 242 235 225 218 204 197 193 190 187 185 176 168 158 146 132 127 116 104 92 75 52 18 110 137 128 121 107 98 89 87 57 27 328
237 229 219 225 239 259 250 255 261 272 271 280 304 312 298 285 286 270 237 219 206 197 192 189 187 179 173 166 161 154 146 134 123 119 122 127 142 167 161 149 139 136 126 118 119 114 128 193 253
230 234 235 233 221 264 264 262 259 262 278 10 355 352 346 336 335 325 270 226 211 202 195 191 187 178 174 167 158 152 140 137 139 148 148 154 157 164 166 168 157 143 133 136 141 149 186 190 222
224 234 241 249 248 238 257 248 225 187 121 68 39 25 19 11 5 9 4 294 211 201 195 190 184 172 165 152 140 135 131 137 150 152 149 139 144 157 161 170 154 145 147 150 149 161 184 180 178
222 224 241 249 254 236 221 251 194 171 145 74 46 38 32 29 29 33 39 44 57 135 168 167 161 155 152 151 154 154 158 158 159 146 134 125 125 136 133 128 122 123 121 129 135 128 144 169 178
233 222 231 242 250 260 226 246 211 168 164 76 52 44 41 41 42 45 47 52 57 70 102 129 136 140 145 150 152 153 147 130 125 125 125 111 99 97 98 98 99 98 97 100 100 102 102 123 171
223 217 226 239 241 239 232 234 217 132 98 87 70 57 49 45 46 47 50 54 57 63 76 92 103 105 109 113 121 127 127 128 132 132 123 108 96 88 88 90 91 93 95 96 97 99 95 81 69
214 219 216 212 215 230 202 224 131 93 96 94 84 66 55 49 46 43 44 47 51 57 64 75 82 80 80 85 87 96 107 117 121 122 113 109 102 95 92 93 95 94 95 99 104 104 99 104 134
207 222 236 236 226 206 183 214 113 112 106 99 90 78 64 53 48 45 44 46 49 54 59 67 73 74 74 77 77 78 83 87 89 94 102 103 100 96 97 96 97 99 102 106 111 120 119 131 250
212 222 243 265 269 259 195 132 124 137 124 111 99 83 69 59 52 48 46 48 52 55 58 66 72 74 73 76 78 78 80 85 91 94 96 97 100 105 104 103 102 101 100 98 101 81 68 12 310
243 230 227 241 245 242 223 203 179 166 148 128 109 93 79 67 59 54 51 54 57 63 66 68 73 75 76 78 80 83 85 91 96 96 95 97 99 101 105 102 101 100 99 98 94 108 56 318 304
208 220 230 241 251 253 244 206 109 155 149 133 115 101 90 78 68 63 63 64 69 72 75 77 78 79 79 80 83 86 87 89 91 93 96 98 100 106 107 108 108 105 99 86 56 12 336 317 318
225 228 225 240 239 248 268 102 100 134 135 128 119 108 98 90 82 76 75 76 76 75 74 75 78 81 84 86 87 87 89 90 90 90 92 94 94 91 92 96 95 88 74 50 20 355 342 327 320